• In Lithuania
  • List of Countries
  • For 7 days
  • Water Temperature
  • Satellite Maps
  • Weather Map
  • Weather Widgets
  • user-avatar
    Login

    Hourly Weather Nowogród Bobrzański

    Today, 12 December, Tuesday

    Time Temperature Precipitation Wind Pressure Humidity
    00:00 +5°C° 0.2 mm 3 mps 731 mmHg 93%
    01:00 +6°C° 0 mm 2 mps 732 mmHg 93%
    02:00 +5°C° 0.3 mm 3 mps 732 mmHg 92%
    03:00 +5°C° 0.3 mm 3 mps 733 mmHg 91%
    04:00 +5°C° 0.3 mm 4 mps 733 mmHg 90%
    05:00 +5°C° 0.1 mm 4 mps 734 mmHg 87%
    06:00 +5°C° 0.1 mm 5 mps 735 mmHg 83%
    07:00 +5°C° 0.1 mm 5 mps 735 mmHg 80%
    08:00 +4°C° 0 mm 6 mps 736 mmHg 76%
    09:00 +4°C° 0 mm 7 mps 737 mmHg 72%
    10:00 +4°C° 0 mm 8 mps 738 mmHg 69%
    11:00 +4°C° 0 mm 8 mps 739 mmHg 68%
    12:00 +2°C° 0 mm 8 mps 740 mmHg 67%
    13:00 +2°C° 0 mm 8 mps 742 mmHg 66%
    14:00 +2°C° 0 mm 8 mps 743 mmHg 66%
    15:00 +2°C° 0 mm 7 mps 743 mmHg 66%
    16:00 +2°C° 0 mm 7 mps 744 mmHg 65%
    17:00 +2°C° 0 mm 7 mps 745 mmHg 66%
    18:00 0°C° 0 mm 7 mps 746 mmHg 67%
    19:00 0°C° 0 mm 7 mps 747 mmHg 68%
    20:00 +1°C° 0.1 mm 6 mps 748 mmHg 70%
    21:00 +1°C° 0.1 mm 6 mps 749 mmHg 73%
    22:00 +1°C° 0.1 mm 6 mps 750 mmHg 76%
    23:00 0°C° 0 mm 5 mps 750 mmHg 79%

    Tomorrow, 13 December, Wednesday

    Time Temperature Precipitation Wind Pressure Humidity
    00:00 0°C° 0 mm 5 mps 751 mmHg 82%
    01:00 -1°C° 0 mm 4 mps 751 mmHg 85%
    02:00 -1°C° 0 mm 4 mps 752 mmHg 86%
    03:00 -1°C° 0 mm 4 mps 752 mmHg 87%
    04:00 -1°C° 0 mm 3 mps 752 mmHg 87%
    05:00 -1°C° 0 mm 3 mps 752 mmHg 87%
    06:00 -1°C° 0 mm 3 mps 752 mmHg 87%
    07:00 -1°C° 0 mm 3 mps 752 mmHg 86%
    08:00 -2°C° 0 mm 4 mps 752 mmHg 82%
    09:00 -1°C° 0 mm 4 mps 752 mmHg 78%
    10:00 0°C° 0 mm 4 mps 752 mmHg 74%
    11:00 0°C° 0 mm 5 mps 751 mmHg 71%
    12:00 +1°C° 0 mm 5 mps 751 mmHg 69%
    13:00 +1°C° 0 mm 5 mps 750 mmHg 66%
    14:00 +1°C° 0 mm 5 mps 749 mmHg 68%
    15:00 0°C° 0 mm 5 mps 748 mmHg 69%
    16:00 0°C° 0 mm 5 mps 748 mmHg 71%
    17:00 0°C° 0 mm 5 mps 747 mmHg 69%
    18:00 0°C° 0 mm 5 mps 746 mmHg 68%
    19:00 -1°C° 0 mm 6 mps 745 mmHg 66%
    20:00 -1°C° 0.3 mm 6 mps 744 mmHg 69%
    21:00 -1°C° 0.3 mm 6 mps 743 mmHg 71%
    22:00 0°C° 0.3 mm 7 mps 742 mmHg 73%
    23:00 0°C° 0.2 mm 7 mps 741 mmHg 74%

    Day after tomorrow, 14 December, Thursday

    Time Temperature Precipitation Wind Pressure Humidity
    00:00 0°C° 0.2 mm 7 mps 740 mmHg 75%
    01:00 0°C° 0.2 mm 7 mps 739 mmHg 75%
    02:00 +2°C° 0.2 mm 7 mps 738 mmHg 75%
    03:00 +2°C° 0.2 mm 7 mps 738 mmHg 76%
    04:00 +3°C° 0.2 mm 7 mps 737 mmHg 76%
    05:00 +3°C° 0.3 mm 6 mps 737 mmHg 79%
    06:00 +3°C° 0.3 mm 6 mps 736 mmHg 81%
    07:00 +3°C° 0.3 mm 5 mps 736 mmHg 84%
    08:00 +3°C° 0.1 mm 6 mps 736 mmHg 81%
    09:00 +3°C° 0.1 mm 6 mps 736 mmHg 77%
    10:00 +4°C° 0.1 mm 7 mps 736 mmHg 73%
    11:00 +2°C° 0 mm 8 mps 736 mmHg 67%
    12:00 +2°C° 0 mm 9 mps 736 mmHg 61%
    13:00 +2°C° 0 mm 10 mps 737 mmHg 54%
    14:00 +1°C° 0 mm 8 mps 737 mmHg 57%
    15:00 0°C° 0 mm 7 mps 738 mmHg 60%
    16:00 +1°C° 0 mm 6 mps 738 mmHg 62%
    17:00 0°C° 0 mm 5 mps 738 mmHg 64%
    18:00 0°C° 0 mm 5 mps 738 mmHg 65%
    19:00 0°C° 0 mm 4 mps 738 mmHg 66%
    20:00 0°C° 0 mm 4 mps 738 mmHg 68%
    21:00 0°C° 0 mm 4 mps 737 mmHg 69%
    22:00 0°C° 0 mm 4 mps 736 mmHg 71%
    23:00 +1°C° 0.1 mm 3 mps 735 mmHg 74%

    15 December, Friday

    Time Temperature Precipitation Wind Pressure Humidity
    00:00 +1°C° 0.1 mm 3 mps 735 mmHg 77%
    01:00 +1°C° 0.1 mm 3 mps 734 mmHg 80%
    02:00 +1°C° 0.2 mm 4 mps 733 mmHg 80%
    03:00 +1°C° 0.2 mm 5 mps 733 mmHg 80%
    04:00 +1°C° 0.2 mm 6 mps 733 mmHg 80%
    05:00 +1°C° 0.4 mm 6 mps 734 mmHg 80%
    06:00 0°C° 0.4 mm 7 mps 735 mmHg 80%
    07:00 0°C° 0.4 mm 7 mps 735 mmHg 80%
    08:00 -1°C° 0 mm 6 mps 736 mmHg 80%
    09:00 -1°C° 0 mm 6 mps 737 mmHg 79%
    10:00 0°C° 0 mm 5 mps 738 mmHg 78%
    11:00 +1°C° 0 mm 5 mps 738 mmHg 76%
    12:00 +1°C° 0 mm 5 mps 738 mmHg 75%
    13:00 +3°C° 0 mm 4 mps 738 mmHg 73%
    14:00 +1°C° 0 mm 4 mps 738 mmHg 77%
    15:00 +2°C° 0 mm 3 mps 738 mmHg 81%
    16:00 +2°C° 0 mm 2 mps 738 mmHg 85%
    17:00 +2°C° 0.1 mm 3 mps 738 mmHg 83%
    18:00 +2°C° 0.1 mm 3 mps 738 mmHg 81%
    19:00 +1°C° 0.1 mm 4 mps 739 mmHg 80%
    20:00 +1°C° 0.1 mm 4 mps 739 mmHg 80%
    21:00 +1°C° 0.1 mm 4 mps 739 mmHg 80%
    22:00 +1°C° 0.1 mm 4 mps 739 mmHg 81%
    23:00 +1°C° 0 mm 4 mps 739 mmHg 82%

    16 December, Saturday

    Time Temperature Precipitation Wind Pressure Humidity
    00:00 +1°C° 0 mm 3 mps 739 mmHg 84%
    01:00 +1°C° 0 mm 3 mps 739 mmHg 86%
    02:00 +1°C° 0 mm 3 mps 740 mmHg 86%
    03:00 0°C° 0 mm 4 mps 740 mmHg 87%
    04:00 0°C° 0 mm 4 mps 740 mmHg 88%
    05:00 0°C° 0 mm 4 mps 741 mmHg 87%
    06:00 -1°C° 0 mm 4 mps 741 mmHg 87%
    07:00 -1°C° 0 mm 4 mps 741 mmHg 86%
    08:00 0°C° 0.1 mm 4 mps 742 mmHg 86%
    09:00 0°C° 0.1 mm 4 mps 743 mmHg 85%
    10:00 0°C° 0.1 mm 5 mps 743 mmHg 85%
    11:00 0°C° 0.2 mm 5 mps 744 mmHg 83%
    12:00 +1°C° 0.2 mm 5 mps 744 mmHg 82%
    13:00 +1°C° 0.2 mm 5 mps 744 mmHg 80%
    14:00 +1°C° 0 mm 5 mps 745 mmHg 81%
    15:00 +1°C° 0 mm 5 mps 745 mmHg 81%
    16:00 +1°C° 0 mm 5 mps 745 mmHg 82%
    17:00 0°C° 0 mm 4 mps 746 mmHg 84%
    18:00 0°C° 0 mm 4 mps 746 mmHg 85%
    19:00 0°C° 0 mm 4 mps 746 mmHg 87%
    20:00 -1°C° 0 mm 4 mps 747 mmHg 87%
    21:00 -1°C° 0 mm 4 mps 747 mmHg 88%
    22:00 -1°C° 0 mm 4 mps 747 mmHg 89%
    23:00 -1°C° 0 mm 4 mps 747 mmHg 88%

    17 December, Sunday

    Time Temperature Precipitation Wind Pressure Humidity
    00:00 -2°C° 0 mm 5 mps 748 mmHg 88%
    01:00 -2°C° 0 mm 5 mps 748 mmHg 87%
    02:00 -2°C° 0 mm 5 mps 748 mmHg 87%
    03:00 -2°C° 0 mm 5 mps 748 mmHg 86%
    04:00 -1°C° 0 mm 5 mps 749 mmHg 85%
    05:00 -1°C° 0.1 mm 5 mps 749 mmHg 85%
    06:00 -1°C° 0.1 mm 5 mps 749 mmHg 86%
    07:00 -1°C° 0.1 mm 5 mps 750 mmHg 86%
    08:00 -1°C° 0.1 mm 5 mps 750 mmHg 84%
    09:00 -1°C° 0.1 mm 5 mps 751 mmHg 83%
    10:00 -1°C° 0.1 mm 5 mps 751 mmHg 82%
    11:00 0°C° 0 mm 5 mps 752 mmHg 80%
    12:00 0°C° 0 mm 5 mps 752 mmHg 79%
    13:00 0°C° 0 mm 5 mps 752 mmHg 77%
    14:00 0°C° 0 mm 5 mps 753 mmHg 79%
    15:00 -1°C° 0 mm 4 mps 753 mmHg 82%
    16:00 -1°C° 0 mm 4 mps 754 mmHg 84%
    17:00 -1°C° 0 mm 4 mps 754 mmHg 85%
    18:00 0°C° 0 mm 3 mps 755 mmHg 86%
    19:00 0°C° 0 mm 3 mps 755 mmHg 88%
    20:00 0°C° 0 mm 3 mps 756 mmHg 89%
    21:00 -1°C° 0 mm 3 mps 757 mmHg 91%
    22:00 -1°C° 0 mm 3 mps 757 mmHg 93%
    23:00 -1°C° 0 mm 3 mps 757 mmHg 93%
    Show more